Friday Harbor, WA

1:20 AM PDT on October 18, 2017 (GMT -0700)
Friday Harbor

Weather History for KFHR - December, 2013

Change the Weather History Date:

Monday, December 2, 2013

  Actual Average Record
Temperature  
Mean Temperature 40 °F -  
Max Temperature 45 °F 45 °F 54 °F (2008)
Min Temperature 33 °F 36 °F 27 °F (2014)
Degree Days  
Heating Degree Days 26    
Moisture  
Dew Point 27 °F    
Average Humidity 66    
Maximum Humidity 89    
Minimum Humidity 46    
Precipitation  
Precipitation 0.00 in - - ()
Sea Level Pressure  
Sea Level Pressure 29.94 in    
Wind  
Wind Speed 7 mph (WNW)    
Max Wind Speed 24 mph    
Max Gust Speed 33 mph    
Visibility 10 miles    
Events Snow    
Averages and records for this station are not official NWS values.
T = Trace of Precipitation, MM = Missing Value Source: NWS Daily Summary

Daily Weather History Graph

Daily Weather History Graph

Search for Another Location

Airport or City:

Trip Planner

Search our weather history database for the weather conditions in past years. The results will help you decide how hot, cold, wet, or windy it might be!

Date:

Astronomy

Dec. 02, 2013 Rise Set
Actual Time 7:44 AM PST 4:18 PM PST
Civil Twilight 7:08 AM PST 4:54 PM PST
Nautical Twilight 6:28 AM PST 5:34 PM PST
Astronomical Twilight 5:51 AM PST 6:11 PM PST
Moon 7:12 AM PST (12/2) 4:29 PM PST (12/2)
Length of Visible Light 9h 46m
Length of Day
8h 34m
Waning Crescent, 0% of the Moon is Illuminated
Dec 2
Waning Crescent
Dec 2
New
Dec 9
First Quarter
Dec 17
Full
Dec 25
Last Quarter

Hourly Weather History & Observations

Time (PST) Temp. Windchill Dew Point Humidity Pressure Visibility Wind Dir Wind Speed Gust Speed Precip Events Conditions
12:53 AM 39.0 °F 31.8 °F 32.0 °F 76% 29.80 in 10.0 mi SW 11.5 mph 20.7 mph N/A   Partly Cloudy
1:53 AM 39.0 °F 31.8 °F 28.9 °F 67% 29.81 in 10.0 mi SW 11.5 mph 20.7 mph N/A   Clear
2:53 AM 37.9 °F 33.5 °F 32.0 °F 79% 29.81 in 10.0 mi WSW 5.8 mph - N/A   Clear
3:53 AM 37.9 °F 31.5 °F 32.0 °F 79% 29.81 in 10.0 mi SW 9.2 mph - N/A   Clear
4:53 AM 37.0 °F 32.4 °F 30.0 °F 76% 29.82 in 10.0 mi Variable 5.8 mph - N/A   Clear
5:53 AM 36.0 °F 33.3 °F 28.0 °F 73% 29.81 in 10.0 mi WSW 3.5 mph - N/A   Clear
6:53 AM 36.0 °F 32.1 °F 28.9 °F 76% 29.83 in 10.0 mi WSW 4.6 mph - N/A   Clear
7:53 AM 36.0 °F 32.1 °F 28.0 °F 73% 29.85 in 10.0 mi West 4.6 mph - N/A   Clear
8:53 AM 36.0 °F 33.3 °F 28.9 °F 76% 29.88 in 10.0 mi SW 3.5 mph - N/A   Clear
9:53 AM 41.0 °F 39.0 °F 30.0 °F 65% 29.88 in 10.0 mi Variable 3.5 mph - N/A   Partly Cloudy
10:53 AM 43.0 °F 40.3 °F 28.0 °F 56% 29.90 in 10.0 mi Variable 4.6 mph - N/A   Clear
11:53 AM 45.0 °F 42.6 °F 25.0 °F 46% 29.89 in 10.0 mi Variable 4.6 mph - N/A   Mostly Cloudy
12:53 PM 45.0 °F 41.8 °F 26.1 °F 48% 29.91 in 10.0 mi SSW 5.8 mph - N/A   Mostly Cloudy
1:53 PM 44.1 °F 41.5 °F 26.1 °F 49% 29.92 in 10.0 mi Variable 4.6 mph - N/A   Mostly Cloudy
2:53 PM 43.0 °F - 26.1 °F 51% 29.94 in 10.0 mi Calm Calm - N/A   Overcast
3:53 PM 42.1 °F - 27.0 °F 55% 29.97 in 10.0 mi Calm Calm - N/A   Overcast
4:53 PM 39.9 °F - 30.0 °F 68% 29.99 in 10.0 mi Calm Calm - N/A   Overcast
5:53 PM 39.9 °F 36.7 °F 30.0 °F 68% 29.99 in 10.0 mi Variable 4.6 mph - N/A   Mostly Cloudy
6:25 PM 37.9 °F 30.9 °F 34.0 °F 86% 30.01 in 10.0 mi NNE 10.4 mph - N/A   Overcast
6:38 PM 35.1 °F 28.6 °F 32.0 °F 89% 30.02 in 4.0 mi NNE 8.1 mph 21.9 mph 0.00 in Snow Light Snow
6:45 PM 36.0 °F 31.1 °F 30.9 °F 82% 30.02 in 8.0 mi North 5.8 mph - 0.00 in Snow Light Snow
6:53 PM 36.0 °F - 32.0 °F 86% 30.03 in 9.0 mi Calm Calm - 0.00 in   Overcast
7:04 PM 36.0 °F - 32.0 °F 86% 30.03 in 10.0 mi Calm Calm - N/A   Overcast
7:53 PM 36.0 °F 28.5 °F 23.0 °F 59% 30.06 in 10.0 mi NNE 10.4 mph - N/A   Overcast
8:53 PM 36.0 °F 29.6 °F 19.0 °F 50% 30.08 in 10.0 mi NNE 8.1 mph - N/A   Overcast
9:53 PM 35.1 °F 26.4 °F 16.0 °F 46% 30.09 in 10.0 mi NNE 12.7 mph 20.7 mph N/A   Clear
10:53 PM 34.0 °F 23.0 °F 15.1 °F 46% 30.11 in 10.0 mi NNE 18.4 mph 32.2 mph N/A   Clear
11:53 PM 33.1 °F 20.3 °F 15.1 °F 48% 30.15 in 10.0 mi North 24.2 mph 33.4 mph N/A   Clear